Charlottetown, Prince Edward Island

7:16 PM ADT on October 18, 2017 (GMT -0300)
Charlottetown

Weather History for CYYG - September, 2013

Change the Weather History Date:

Monday, September 2, 2013

  Actual Average Record
Temperature  
Mean Temperature 62 °F -  
Max Temperature 64 °F 63 °F 87 °F (2010)
Min Temperature 59 °F 47 °F 41 °F (2012)
Degree Days  
Heating Degree Days 4    
Growing Degree Days 12 (Base 50)    
Moisture  
Dew Point 58 °F    
Average Humidity 88    
Maximum Humidity 100    
Minimum Humidity 72    
Precipitation  
Precipitation 0.00 in 0.12 in - ()
Sea Level Pressure  
Sea Level Pressure 30.08 in    
Wind  
Wind Speed 11 mph ()    
Max Wind Speed 20 mph    
Max Gust Speed 23 mph    
Visibility 11.1 miles    
Events Rain    
Averages and records for this station are not official NWS values.
T = Trace of Precipitation, MM = Missing Value Source: Averaged Metar Reports

Daily Weather History Graph

Daily Weather History Graph

Search for Another Location

Airport or City:

Trip Planner

Search our weather history database for the weather conditions in past years. The results will help you decide how hot, cold, wet, or windy it might be!

Date:

Astronomy

Sep. 02, 2013 Rise Set
Actual Time 6:34 AM ADT 7:48 PM ADT
Civil Twilight 6:03 AM ADT 8:19 PM ADT
Nautical Twilight 5:25 AM ADT 8:57 PM ADT
Astronomical Twilight 4:46 AM ADT 9:36 PM ADT
Moon 3:41 AM ADT (9/2) 6:04 PM ADT (9/2)
Length of Visible Light 14h 16m
Length of Day
13h 14m
Waning Crescent, 8% of the Moon is Illuminated
Sep 2
Waning Crescent
Sep 5
New
Sep 12
First Quarter
Sep 19
Full
Sep 27
Last Quarter

Hourly Weather History & Observations

Time (ADT) Temp. Dew Point Humidity Pressure Visibility Wind Dir Wind Speed Gust Speed Precip Events Conditions
12:00 AM 62.6 °F 60.8 °F 94% 30.00 in 6.0 mi NNE 15.0 mph - N/A   Overcast
1:00 AM 62.6 °F 60.8 °F 94% 30.01 in 8.0 mi NNE 11.5 mph - N/A   Overcast
2:00 AM 62.6 °F 59.0 °F 88% 30.04 in 10.0 mi NE 11.5 mph - N/A   Overcast
3:00 AM 62 °F 59 °F 88% 30.04 in 12 mi NNE 12.7 mph - -   Overcast
3:00 AM 62.6 °F 59.0 °F 88% 30.04 in 12.0 mi NE 13.8 mph - N/A   Overcast
4:00 AM 60.8 °F 59.0 °F 94% 30.04 in 12.0 mi NE 11.5 mph - N/A   Overcast
5:00 AM 60.8 °F 57.2 °F 88% 30.06 in 12.0 mi NE 9.2 mph - N/A   Overcast
6:00 AM 60.8 °F 57.2 °F 88% 30.08 in 12.0 mi NE 10.4 mph - N/A   Overcast
6:42 AM 59.0 °F 57.2 °F 94% 30.09 in 6.0 mi NE 11.5 mph - N/A   Light Drizzle
7:00 AM 59.0 °F 57.2 °F 94% 30.10 in 6.0 mi NE 12.7 mph - N/A   Light Drizzle
7:17 AM 59.0 °F 57.2 °F 94% 30.10 in 8.0 mi NNE 12.7 mph - N/A   Overcast
8:00 AM 59.0 °F 57.2 °F 94% 30.11 in 15.0 mi NE 10.4 mph - N/A   Overcast
9:00 AM 60 °F 57 °F 85% 30.12 in 15 mi NE 13.8 mph - -   Partly Cloudy
9:00 AM 60.8 °F 57.2 °F 88% 30.11 in 15.0 mi NE 13.8 mph 19.6 mph N/A   Overcast
10:00 AM 60.8 °F 55.4 °F 82% 30.12 in 15.0 mi NE 19.6 mph - N/A   Overcast
11:00 AM 62.6 °F 57.2 °F 82% 30.12 in 15.0 mi NE 16.1 mph 23.0 mph N/A   Overcast
11:45 AM 62.6 °F 57.2 °F 82% 30.13 in 15.0 mi NE 16.1 mph - N/A   Light Drizzle
12:00 PM 62.6 °F 57.2 °F 82% 30.13 in 15.0 mi NE 13.8 mph - N/A   Light Drizzle
12:48 PM 62.6 °F 59.0 °F 88% 30.12 in 15.0 mi NE 10.4 mph 17.3 mph N/A   Overcast
1:00 PM 62.6 °F 57.2 °F 82% 30.12 in 15.0 mi NE 16.1 mph - N/A   Overcast
2:00 PM 62.6 °F 57.2 °F 82% 30.12 in 15.0 mi NE 13.8 mph - N/A   Overcast
3:00 PM 63 °F 56 °F 72% 30.12 in 15 mi ENE 11.5 mph - -   Partly Cloudy
3:00 PM 62.6 °F 55.4 °F 77% 30.11 in 15.0 mi NE 9.2 mph - N/A   Overcast
4:00 PM 64.4 °F 57.2 °F 77% 30.10 in 15.0 mi NE 15.0 mph - N/A   Mostly Cloudy
5:00 PM 60.8 °F 55.4 °F 82% 30.10 in 15.0 mi NNE 13.8 mph - N/A   Mostly Cloudy
6:00 PM 60.8 °F 57.2 °F 88% 30.08 in 15.0 mi NE 9.2 mph - N/A   Mostly Cloudy
6:27 PM 60.8 °F 57.2 °F 88% 30.08 in 15.0 mi ENE 8.1 mph - N/A Rain Light Rain Showers
6:51 PM 60.8 °F 57.2 °F 88% 30.08 in 6.0 mi NE 5.8 mph - N/A Rain Light Rain
7:00 PM 60.8 °F 57.2 °F 88% 30.08 in 6.0 mi NE 5.8 mph - N/A Rain Light Rain
7:53 PM 59.0 °F 59.0 °F 100% 30.08 in 6.0 mi ENE 5.8 mph - N/A   Light Drizzle
8:00 PM 59.0 °F 59.0 °F 100% 30.07 in 6.0 mi ENE 5.8 mph - N/A   Light Drizzle
9:00 PM 60.8 °F 59.0 °F 94% 30.07 in 6.0 mi East 6.9 mph - N/A   Light Drizzle
10:00 PM 62.6 °F 60.8 °F 94% 30.06 in 6.0 mi ESE 8.1 mph - N/A   Light Drizzle
10:50 PM 62.6 °F 60.8 °F 94% 30.06 in 5.0 mi ESE 11.5 mph 17.3 mph N/A Rain Light Rain
11:00 PM 62.6 °F 60.8 °F 94% 30.05 in 5.0 mi SE 13.8 mph 20.7 mph N/A Rain Light Rain